User: anonymous   Login
Location: LDNL
(36.4545°S, 141.6685°E)
Time: 09:44:35
(UTC+10:00)
Language:

NO-84 - Orbit

View from above orbital plane
View from above orbital plane
View from above satellite
View from above satellite

Ground track
Ground track

The orbit data is extracted from the following two-line orbital elements,

1 40654U 15025D   21356.53573001  .07572654  12207-4  29631-3 0  3027
2 40654  54.9254 216.0649 0005658 277.1906  89.9756 16.43661753 36841
Epoch (UTC): 22 December 2021 12:51:27
Eccentricity: 0.0005658
inclination: 54.9254°
perigee height: 152 km
apogee height: 160 km
right ascension of ascending node: 216.0649°
argument of perigee: 277.1906°
revolutions per day: 16.43661753
mean anomaly at epoch: 89.9756°
orbit number at epoch: 3684

The dashed part of the orbit path shows where the satellite is in the earth's shadow,  

DLR